Weather in Ivanovka

Russia / Lipetsk Oblast     52°04′00″N   38°16′30″E
temp.,
°C
wind,
m/s
gust,
m/s
humid.,
%
clouds,
%
prec.,
mm/h
press.,
hPa
HPBL,
m
22 april, thu
thu2200:00+5wsw4888100 0.0 1016331
03:00+3wsw349217 0.0 101775
06:00+3ssw35945 0.0 1018111
09:00+9sw46775 0.0 1019545
12:00+13sw575660 0.1 10191703
15:00+14ssw5757100 0.4 10191514
18:00+13ssw486491 0.1 1019442
21:00+10ssw397599 0.1 1020176
23 april, fri
fri2300:00+8ssw36799 0.0 102094
03:00+7s358027 0.0 101979
06:00+7s388197 0.0 1019125
09:00+13s586110 0.0 1019592
12:00+16ssw6843100 0.1 10172445
15:00+15s5854100 0.2 10151744
18:00+13sse486393 0.3 1014298
21:00+11s51170100 0.4 1013348
24 april, sat
sat2400:00+9sw61387100 0.6 10121099
03:00+5wnw6892100 1.9 1012793
06:00+4wnw4887100 0.1 1012485
09:00+7wsw57689 0.3 10121071
12:00+9w8952100 0.9 10122028
15:00+10w91139100 1.1 10122887
18:00+7w8105355 0.1 10121692
21:00+3w710685 0.1 1014761
25 april, sun
sun2500:00+1wnw71397100 0.3 1015695
03:00+1w713825 0.7 1016495
06:00+1wsw512835 0.0 1017434
09:00+5w711595 0.0 10181338
12:00+9w71043100 0.1 10172666
15:00+10wsw71039100 0.1 10162701
18:00+9sw6104538 0.0 10151655
21:00+5sw61191100 1.0 1016918
26 april, mon
mon2600:00+4wsw47896 0.2 1017438
03:00+2sw349285 0.2 101791
06:00+2sw2489100 0.0 1017101
09:00+6wnw3364100 0.0 1016993
12:00+8w3545100 0.0 10151959
15:00+8w564997 0.2 10151726
18:00+7w575267 0.2 10141504
21:00+4wsw387082 0.3 1015180